Probability
26 26 19 19 19 23 19 16 13 13 10 3 6 3 3 3 3 6 10 6 3 0 0 0 0 3 6 6 10 6 3 10 10 10 10 13 10 10
29 29 23 19 19 19 19 19 13 13 13 10 6 10 10 10 6 6 6 10 3 3 0 0 0 0 0 0 0 0 0 0 0 0 0 0 6 10
26 26 26 23 19 19 16 16 16 16 16 10 10 10 13 10 6 3 3 3 13 6 3 0 0 0 0 0 0 0 0 0 0 0 0 0 0 0
32 32 29 23 19 19 16 19 19 16 16 16 16 13 16 10 6 6 6 6 6 6 6 0 0 0 0 0 0 0 0 0 0 0 0 0 0 0
29 29 29 29 26 23 26 23 23 26 16 16 16 10 10 6 6 3 6 6 6 6 6 6 0 0 0 0 0 0 0 0 0 0 0 0 0 0
26 23 23 19 23 23 23 26 26 16 10 10 10 10 3 0 6 10 3 3 3 6 6 6 6 3 0 0 0 0 0 0 0 0 0 0 0 0
29 26 26 23 19 19 23 19 16 13 10 10 10 10 10 10 10 6 6 3 0 3 6 3 3 3 0 0 0 0 0 0 0 0 0 0 0 0
29 26 26 23 19 16 13 10 10 13 16 16 10 13 10 10 6 10 0 0 3 0 3 6 6 3 0 0 0 0 0 0 0 0 0 0 0 0
32 29 32 29 16 13 16 3 3 3 6 6 13 10 10 10 10 6 3 3 3 0 6 6 0 0 0 0 0 0 0 0 0 0 0 0 0 0
26 29 29 26 16 16 16 13 10 6 3 0 0 6 6 3 6 6 6 6 0 0 3 0 0 0 3 3 0 0 0 0 0 0 0 0 0 0
16 19 19 13 10 3 10 13 13 13 6 0 0 0 0 3 3 0 3 3 0 0 0 0 0 0 3 0 0 0 0 0 0 0 0 0 0 0
10 13 10 10 10 0 3 13 10 10 10 6 0 0 0 0 0 0 3 3 0 0 0 0 3 3 3 0 0 0 0 0 0 0 0 0 0 0
6 13 6 0 0 0 0 10 10 10 10 6 6 3 0 0 0 0 0 0 0 3 0 3 3 3 3 0 0 0 0 0 0 0 0 0 0 0
6 6 6 3 3 0 0 0 0 0 3 3 3 6 3 3 6 6 0 3 0 0 0 0 3 3 3 0 0 0 0 0 0 0 0 0 0 0
10 10 3 0 0 0 0 0 0 0 0 3 3 0 0 3 3 3 0 0 0 0 3 3 3 3 3 0 0 0 0 0 0 0 0 0 0 0
3 0 0 0 0 0 0 0 0 0 0 0 0 3 3 3 3 3 3 3 3 3 3 3 3 3 3 0 0 0 0 0 0 0 0 0 0 0
0 0 0 0 0 0 0 0 0 0 0 3 3 3 3 3 3 3 3 3 3 6 3 0 0 0 0 0 0 0 0 0 0 0 0 0 0 0
0 0 0 0 0 0 0 0 0 0 3 3 3 0 3 3 3 3 3 0 3 3 3 0 0 0 0 0 0 0 0 0 0 0 0 0 0 0
0 0 0 0 3 6 0 3 0 0 3 3 0 3 3 0 3 3 3 0 3 3 0 0 0 0 0 0 0 0 0 0 0 0 0 0 0 0
0 0 3 3 3 3 0 3 0 0 0 0 0 0 3 3 3 6 6 6 3 3 0 0 0 0 0 0 0 0 0 0 0 0 0 0 0 0
0 0 3 3 3 6 3 3 3 3 3 3 3 3 3 3 3 6 6 6 3 3 3 3 0 0 0 0 0 0 0 0 0 0 0 0 0 0
0 0 6 6 6 3 3 3 3 3 3 3 3 3 3 3 3 3 3 3 3 3 3 0 0 0 0 0 0 0 0 0 0 0 0 0 0 0
0 0 3 3 3 3 3 3 3 3 3 3 3 3 3 3 3 3 3 3 3 3 3 0 0 0 0 0 0 0 0 0 0 0 0 0 0 0
Height
5877 5875 5873 5872 5870 5869 5867 5866 5865 5864 5863 5862 5860 5858 5857 5856 5855 5853 5852 5850 5849 5847 5846 5845 5843 5842 5840 5839 5838 5837 5835 5834 5833 5832 5831 5830 5830 5829
5873 5872 5870 5868 5867 5865 5863 5862 5861 5860 5859 5858 5857 5855 5853 5852 5851 5849 5848 5846 5845 5843 5842 5841 5839 5838 5836 5835 5834 5832 5831 5829 5828 5827 5826 5825 5824 5824
5870 5868 5867 5865 5863 5862 5860 5858 5857 5855 5854 5854 5852 5850 5849 5848 5846 5845 5843 5842 5841 5839 5838 5836 5835 5833 5832 5830 5829 5827 5826 5824 5823 5822 5821 5820 5819 5819
5867 5865 5863 5861 5860 5858 5855 5854 5852 5851 5849 5848 5847 5845 5844 5842 5841 5840 5838 5837 5836 5834 5833 5831 5830 5828 5826 5825 5823 5822 5821 5819 5818 5817 5816 5815 5814 5813
5862 5860 5858 5856 5855 5853 5851 5849 5847 5846 5844 5843 5842 5840 5838 5837 5835 5834 5832 5832 5830 5829 5828 5826 5824 5823 5821 5819 5818 5816 5815 5814 5813 5811 5810 5809 5808 5807
5857 5855 5853 5851 5849 5847 5845 5843 5842 5840 5838 5837 5835 5834 5832 5831 5829 5827 5826 5825 5824 5823 5822 5820 5819 5817 5815 5814 5812 5810 5809 5807 5806 5805 5804 5803 5802 5801
5851 5849 5847 5845 5843 5841 5839 5837 5836 5834 5832 5830 5829 5827 5826 5824 5822 5821 5820 5819 5818 5816 5815 5814 5812 5811 5809 5807 5806 5804 5803 5801 5800 5799 5797 5796 5795 5794
5845 5843 5841 5839 5836 5834 5833 5831 5829 5827 5825 5823 5821 5820 5818 5817 5815 5814 5813 5812 5811 5810 5808 5807 5805 5804 5802 5801 5799 5797 5795 5794 5792 5791 5790 5789 5788 5787
5838 5836 5834 5831 5829 5827 5825 5823 5821 5819 5818 5816 5813 5812 5811 5809 5808 5806 5805 5803 5802 5801 5800 5799 5797 5796 5794 5793 5791 5789 5788 5786 5785 5783 5781 5780 5779 5778
5832 5830 5827 5824 5822 5820 5818 5816 5814 5812 5810 5808 5806 5804 5803 5801 5799 5798 5796 5795 5794 5792 5791 5790 5789 5787 5786 5784 5783 5781 5779 5778 5776 5775 5773 5771 5770 5770
5824 5822 5820 5817 5815 5813 5810 5808 5806 5804 5802 5800 5798 5796 5794 5792 5791 5789 5788 5787 5785 5784 5782 5781 5780 5778 5777 5776 5774 5772 5771 5769 5768 5766 5764 5763 5762 5761
5817 5815 5812 5810 5807 5804 5802 5800 5798 5796 5793 5791 5789 5788 5786 5784 5782 5780 5779 5778 5776 5775 5774 5772 5770 5769 5768 5767 5765 5763 5761 5760 5759 5757 5755 5754 5753 5752
5810 5807 5804 5802 5799 5796 5794 5792 5789 5787 5785 5782 5780 5779 5777 5775 5773 5771 5770 5768 5767 5766 5764 5762 5761 5759 5758 5757 5755 5753 5751 5750 5749 5747 5746 5744 5743 5742
5801 5799 5796 5793 5790 5788 5785 5783 5780 5778 5775 5773 5771 5769 5767 5766 5764 5762 5760 5758 5757 5756 5754 5752 5751 5749 5748 5746 5745 5743 5741 5739 5738 5737 5735 5734 5732 5731
5792 5789 5787 5784 5781 5778 5776 5773 5771 5768 5766 5764 5762 5759 5757 5755 5754 5752 5750 5749 5747 5745 5743 5742 5740 5738 5737 5736 5734 5732 5731 5729 5727 5726 5724 5723 5721 5720
5782 5779 5777 5774 5771 5768 5766 5763 5760 5758 5755 5753 5751 5749 5747 5745 5743 5741 5740 5738 5736 5735 5732 5730 5728 5727 5725 5724 5722 5721 5719 5718 5716 5714 5712 5711 5709 5707
5772 5769 5766 5763 5761 5758 5755 5752 5750 5747 5745 5743 5740 5738 5736 5734 5732 5730 5728 5726 5725 5723 5721 5719 5717 5715 5714 5712 5711 5709 5707 5706 5704 5702 5701 5699 5697 5695
5761 5759 5756 5753 5750 5747 5745 5742 5739 5737 5734 5731 5729 5727 5725 5723 5721 5718 5716 5715 5713 5711 5709 5707 5705 5703 5702 5700 5699 5697 5695 5694 5692 5690 5689 5687 5686 5684
5750 5748 5745 5742 5739 5737 5734 5731 5729 5726 5723 5720 5718 5715 5713 5712 5709 5707 5705 5703 5701 5699 5697 5695 5693 5691 5690 5689 5687 5685 5683 5682 5680 5679 5677 5675 5674 5672
5740 5737 5734 5731 5728 5726 5723 5720 5718 5715 5712 5709 5706 5704 5701 5699 5697 5695 5692 5691 5689 5687 5685 5683 5681 5680 5678 5677 5676 5673 5671 5669 5668 5666 5665 5663 5661 5659
5728 5725 5723 5720 5717 5714 5711 5709 5706 5703 5700 5697 5694 5692 5689 5687 5685 5682 5680 5678 5676 5674 5672 5671 5668 5667 5665 5664 5663 5661 5659 5657 5655 5654 5652 5650 5649 5648
5716 5713 5710 5708 5705 5702 5699 5696 5694 5691 5688 5685 5682 5679 5677 5675 5672 5670 5668 5666 5664 5661 5659 5658 5656 5654 5652 5650 5649 5648 5647 5645 5643 5641 5639 5638 5636 5635
5704 5701 5698 5695 5692 5689 5687 5684 5681 5678 5675 5672 5669 5667 5665 5662 5660 5657 5655 5653 5651 5649 5646 5644 5642 5640 5639 5637 5637 5636 5634 5632 5631 5629 5628 5626 5625 5624
Wind_Speed
13 13 13 13 12 12 13 14 13 13 13 14 13 13 13 14 14 14 14 13 13 13 13 13 13 13 14 14 13 14 15 16 16 16 16 17 18 18
14 14 13 12 13 14 14 14 15 15 14 15 15 15 15 14 15 15 15 15 15 15 15 14 14 14 14 15 15 15 15 15 16 16 17 18 18 19
14 13 13 14 15 15 16 15 16 16 16 16 16 16 16 16 16 16 16 16 16 15 16 16 16 16 16 16 16 16 16 16 16 17 17 19 19 19
15 15 15 15 16 17 17 17 17 18 18 18 18 18 17 17 17 17 17 17 17 17 17 17 17 18 18 18 18 17 17 17 17 18 18 19 20 20
17 17 17 18 18 18 19 19 19 20 20 19 19 19 18 18 18 19 18 18 19 19 18 18 19 19 19 19 20 19 18 18 18 18 19 19 20 20
18 19 19 20 20 20 20 21 21 21 21 21 21 21 21 21 20 19 19 20 20 20 20 20 20 20 20 20 20 20 20 20 20 20 20 21 21 21
20 21 22 22 22 22 22 22 22 23 23 23 23 23 23 23 22 21 22 22 22 22 22 22 22 22 22 22 22 22 23 23 23 22 22 23 23 23
23 24 24 23 23 23 23 23 23 24 25 26 25 24 25 25 24 24 23 23 24 24 24 24 25 24 25 25 25 25 24 25 25 26 25 25 25 26
24 25 24 24 24 24 24 25 25 26 26 27 26 26 26 26 26 26 25 25 25 26 26 26 27 27 27 27 27 26 26 26 26 27 27 27 27 27
25 25 25 25 25 26 25 26 26 26 26 26 26 26 26 27 26 27 26 26 26 27 27 27 27 28 28 28 27 27 27 27 27 28 28 28 28 28
26 26 26 26 27 27 27 26 27 27 27 27 26 26 26 27 27 27 27 27 26 27 27 28 27 27 28 27 28 28 28 28 28 28 28 28 29 29
27 28 27 28 28 28 28 28 28 27 27 27 27 27 27 27 27 27 28 28 28 27 28 29 28 28 28 29 30 30 29 29 30 30 30 30 30 30
28 28 28 29 29 30 30 29 29 29 29 29 28 28 28 28 28 28 29 30 30 29 30 30 30 30 30 30 31 31 31 31 31 32 32 33 33 33
29 29 30 30 30 30 31 31 30 30 30 30 30 30 30 30 30 31 31 32 32 32 31 32 32 32 32 32 32 32 33 33 33 33 34 34 35 35
31 31 31 32 32 32 32 33 32 32 32 32 32 32 32 33 33 33 33 33 33 33 33 34 33 33 33 33 33 33 34 34 35 35 35 35 36 36
34 34 33 33 34 34 34 34 34 34 34 34 34 34 34 35 35 35 35 35 35 34 35 35 35 35 34 34 34 34 34 34 35 35 36 36 37 37
34 35 35 34 34 34 34 35 35 35 34 34 35 34 34 35 35 35 36 35 35 35 35 36 36 36 36 35 34 34 34 34 35 35 36 36 36 36
35 35 35 35 35 35 35 35 35 35 35 35 35 35 35 35 35 35 36 36 36 36 36 36 36 37 36 36 35 35 34 34 35 35 35 35 35 36
36 35 35 35 35 35 35 35 35 36 36 36 36 37 36 36 36 36 37 37 37 37 37 37 37 37 37 36 36 36 36 35 35 35 35 35 35 36
36 36 36 36 36 36 36 36 36 36 36 36 36 37 37 37 37 38 38 38 38 38 37 38 38 38 38 38 37 37 37 36 36 35 35 35 35 35
38 37 37 37 37 38 38 37 37 37 37 37 37 37 37 37 37 37 37 37 37 38 38 38 38 39 39 39 38 38 37 38 38 37 36 36 35 35
37 37 38 38 39 38 38 38 38 38 39 37 37 37 37 36 36 36 37 37 37 38 37 37 38 38 38 38 38 38 37 37 38 38 37 37 36 35
38 38 38 38 38 38 38 38 38 38 38 38 37 37 37 37 37 37 36 36 37 38 38 38 38 38 38 38 38 37 37 37 37 36 36 36 36 35
Wind_Direction
308 306 302 303 303 300 298 298 298 296 298 300 303 299 296 295 295 297 299 300 301 299 298 298 297 298 299 299 296 293 291 288 285 282 279 277 275 272
306 305 303 302 303 302 298 296 294 292 292 294 295 295 293 293 293 295 296 297 298 297 298 297 296 296 296 298 297 295 292 289 288 284 280 277 277 275
306 304 304 304 302 303 301 297 293 291 291 292 293 292 293 294 290 292 294 294 293 292 293 293 293 293 292 292 292 292 290 288 286 285 281 278 276 275
301 300 302 301 299 300 299 297 293 290 289 289 291 291 290 290 289 288 287 288 289 289 289 291 292 293 291 290 288 290 289 290 288 285 282 279 278 276
297 296 297 299 296 295 296 295 293 291 290 290 289 289 287 287 287 286 283 284 285 287 288 288 289 292 292 291 290 290 289 287 287 285 282 280 279 278
294 296 297 297 296 294 294 294 292 291 291 290 290 289 287 286 285 284 282 283 284 284 285 288 289 289 289 290 290 290 289 287 285 284 282 280 278 276
291 296 296 295 295 295 293 293 291 290 289 288 287 288 288 286 284 282 281 280 281 281 283 286 287 286 286 288 289 288 287 286 285 282 280 278 277 276
290 292 294 293 293 292 292 292 291 290 289 287 285 285 286 285 284 281 279 279 280 280 281 283 285 285 285 285 285 285 284 284 284 283 280 278 277 275
292 294 295 294 293 292 291 292 292 292 291 289 285 285 285 285 284 282 278 277 279 280 280 281 282 283 283 283 283 283 282 283 284 283 282 279 277 275
292 294 295 295 295 293 292 293 292 292 292 292 289 287 286 285 284 282 279 280 280 280 281 281 281 282 282 282 282 282 282 282 282 281 281 279 278 275
294 295 296 296 296 296 295 294 292 292 292 292 290 288 287 285 284 283 282 283 282 282 282 283 282 283 283 282 281 281 281 281 280 280 281 281 280 278
293 294 294 294 296 296 294 292 292 291 290 291 290 288 287 286 285 284 283 283 283 282 284 284 283 282 281 282 281 280 279 280 280 280 279 280 281 281
293 294 293 293 294 294 293 291 290 289 288 289 288 287 287 286 286 285 284 284 284 283 284 284 283 283 282 282 281 280 279 278 278 279 279 279 279 279
292 292 292 293 293 292 291 290 290 289 288 287 287 286 286 286 286 286 285 284 284 284 284 284 283 281 281 282 282 280 279 278 278 278 278 279 279 278
291 291 291 291 291 291 290 289 290 289 288 287 286 286 285 285 285 285 285 284 284 284 284 284 283 282 281 281 281 281 279 278 278 278 279 279 279 279
290 289 288 289 289 289 289 288 288 289 289 288 286 286 286 284 284 284 285 284 284 284 284 284 283 282 281 281 281 280 280 279 279 279 280 280 279 278
289 288 288 288 289 288 288 288 288 289 289 288 287 286 286 285 284 284 283 284 284 283 283 283 282 281 281 281 281 281 281 280 280 281 282 281 281 280
289 289 289 288 288 288 288 288 287 287 288 288 287 285 285 285 286 284 283 283 283 282 281 282 281 280 280 281 280 280 281 280 280 280 281 281 281 280
289 288 288 288 289 289 288 288 287 287 287 288 287 286 285 286 286 285 284 283 283 282 281 281 281 281 282 282 282 281 281 280 280 280 280 281 282 281
288 288 288 288 288 289 289 288 287 287 287 287 287 287 286 285 285 284 283 283 283 282 281 280 280 280 280 281 281 281 282 281 281 281 281 281 281 281
288 287 288 289 288 288 288 287 287 288 287 287 287 287 285 285 284 283 283 283 283 282 281 281 280 280 280 280 281 281 281 282 282 282 282 282 281 281
288 287 287 286 286 286 287 287 288 288 287 287 287 287 286 285 284 283 283 283 283 282 281 281 281 281 281 280 280 280 280 280 281 281 282 282 282 281
287 287 287 286 286 285 286 286 287 288 288 287 287 286 286 284 285 285 284 283 283 283 282 281 281 281 280 280 280 279 279 280 281 281 282 282 281 280